,,,PA_Meas_PMT16A,,PR_Meas_QMR101_102,,RH_Meas_QMH101,,SR_Meas_QMS101,,TA_Meas_QMH101,,GenWind,,GenWind,
date,time,status,PA,status,PR,status,RH,status,SR,status,TA,status,DirAvg,status,SpdAvg,
2011-12-08, 00:00:04,VALID,997.94,VALID,0,VALID,93.6383,VALID,0,VALID,23.7793,VALID,66,VALID,0.08125,
2011-12-08, 00:01:04,VALID,997.894,VALID,0,VALID,93.6383,VALID,0,VALID,23.7988,VALID,66,VALID,0.294922,
2011-12-08, 00:02:04,VALID,997.856,VALID,0,VALID,93.6536,VALID,0,VALID,23.7988,VALID,66,VALID,0,
2011-12-08, 00:03:04,VALID,997.798,VALID,0,VALID,93.6612,VALID,0,VALID,23.8183,VALID,66,VALID,0,
2011-12-08, 00:04:04,VALID,997.762,VALID,0,VALID,93.6765,VALID,0,VALID,23.8378,VALID,70,VALID,0.0660156,
2011-12-08, 00:05:04,VALID,997.701,VALID,0,VALID,93.6688,VALID,0,VALID,23.8378,VALID,132,VALID,0.776563,
2011-12-08, 00:06:04,VALID,997.711,VALID,0,VALID,93.6383,VALID,0,VALID,23.8378,VALID,132,VALID,0.446094,
2011-12-08, 00:07:04,VALID,997.72,VALID,0,VALID,93.501,VALID,0,VALID,23.8378,VALID,204,VALID,0.912109,
2011-12-08, 00:08:04,VALID,997.714,VALID,0,VALID,93.3408,VALID,0,VALID,23.8963,VALID,195,VALID,0.951172,
2011-12-08, 00:09:04,VALID,997.706,VALID,0,VALID,93.2111,VALID,0,VALID,23.9531,VALID,198,VALID,1.1293,
2011-12-08, 00:10:04,VALID,997.678,VALID,0,VALID,92.6236,VALID,0,VALID,24.0311,VALID,202,VALID,1.38672,
2011-12-08, 00:11:04,VALID,997.681,VALID,0,VALID,91.8835,VALID,0,VALID,24.1305,VALID,196,VALID,1.25273,
2011-12-08, 00:12:04,VALID,997.698,VALID,0,VALID,91.1282,VALID,0,VALID,24.1677,VALID,209,VALID,1.45703,
2011-12-08, 00:13:04,VALID,997.663,VALID,0,VALID,90.3042,VALID,0,VALID,24.2263,VALID,211,VALID,1.04766,
2011-12-08, 00:14:04,VALID,997.684,VALID,0,VALID,89.6175,VALID,0,VALID,24.2671,VALID,206,VALID,1.13008,
2011-12-08, 00:15:04,VALID,997.67,VALID,0,VALID,89.2589,VALID,0,VALID,24.3062,VALID,195,VALID,1.05586,
2011-12-08, 00:16:04,VALID,997.592,VALID,0,VALID,87.9619,VALID,0,VALID,24.3062,VALID,194,VALID,1.62773,
2011-12-08, 00:17:04,VALID,997.598,VALID,0,VALID,88.2747,VALID,0,VALID,24.3647,VALID,181,VALID,1.15977,
2011-12-08, 00:18:04,VALID,997.577,VALID,0,VALID,87.8169,VALID,0,VALID,24.3452,VALID,181,VALID,1.67852,
2011-12-08, 00:19:04,VALID,997.567,VALID,0,VALID,86.3444,VALID,0,VALID,24.3842,VALID,190,VALID,1.55664,
2011-12-08, 00:20:04,VALID,997.508,VALID,0,VALID,86.6649,VALID,0,VALID,24.4623,VALID,186,VALID,1.26328,
2011-12-08, 00:21:04,VALID,997.557,VALID,0,VALID,86.7564,VALID,0,VALID,24.4428,VALID,193,VALID,1.30664,
2011-12-08, 00:22:04,VALID,997.472,VALID,0,VALID,86.0011,VALID,0,VALID,24.4623,VALID,202,VALID,0.89375,
2011-12-08, 00:23:04,VALID,997.468,VALID,0,VALID,86.3673,VALID,0,VALID,24.4818,VALID,209,VALID,0.89375,
2011-12-08, 00:24:04,VALID,997.472,VALID,0,VALID,86.2605,VALID,0,VALID,24.4604,VALID,206,VALID,0.964844,
2011-12-08, 00:25:04,VALID,997.449,VALID,0,VALID,86.1003,VALID,0,VALID,24.48,VALID,206,VALID,1.07422,
2011-12-08, 00:26:04,VALID,997.477,VALID,0,VALID,85.8103,VALID,0,VALID,24.4995,VALID,195,VALID,1.15469,
2011-12-08, 00:27:04,VALID,997.466,VALID,0,VALID,85.5509,VALID,0,VALID,24.519,VALID,220,VALID,1.52695,
2011-12-08, 00:28:04,VALID,997.481,VALID,0,VALID,85.4899,VALID,0,VALID,24.5599,VALID,222,VALID,0.994531,
2011-12-08, 00:29:04,VALID,997.489,VALID,0,VALID,85.2839,VALID,0,VALID,24.558,VALID,217,VALID,1.05938,
2011-12-08, 00:30:04,VALID,997.505,VALID,0,VALID,85.4975,VALID,0,VALID,24.558,VALID,234,VALID,1.15742,
2011-12-08, 00:31:04,VALID,997.486,VALID,0,VALID,85.4594,VALID,0,VALID,24.558,VALID,220,VALID,1.20352,
2011-12-08, 00:32:04,VALID,997.469,VALID,0,VALID,85.673,VALID,0,VALID,24.5385,VALID,212,VALID,0.890625,
2011-12-08, 00:33:04,VALID,997.476,VALID,0,VALID,85.9858,VALID,0,VALID,24.519,VALID,221,VALID,1.15273,
2011-12-08, 00:34:04,VALID,997.438,VALID,0,VALID,85.734,VALID,0,VALID,24.5385,VALID,216,VALID,0.953125,
2011-12-08, 00:35:04,VALID,997.428,VALID,0,VALID,85.4517,VALID,0,VALID,24.5599,VALID,214,VALID,1.01563,
2011-12-08, 00:36:04,VALID,997.38,VALID,0,VALID,85.5738,VALID,0,VALID,24.5599,VALID,217,VALID,1.41914,
2011-12-08, 00:37:04,VALID,997.345,VALID,0,VALID,85.6501,VALID,0,VALID,24.5385,VALID,208,VALID,1.05469,
2011-12-08, 00:38:04,VALID,997.313,VALID,0,VALID,85.8409,VALID,0,VALID,24.5385,VALID,216,VALID,1.05391,
2011-12-08, 00:39:04,VALID,997.282,VALID,0,VALID,85.879,VALID,0,VALID,24.4995,VALID,209,VALID,1.1,
2011-12-08, 00:40:04,VALID,997.295,VALID,0,VALID,85.3068,VALID,0,VALID,24.5404,VALID,199,VALID,0.925781,
2011-12-08, 00:41:04,VALID,997.287,VALID,0,VALID,85.6654,VALID,0,VALID,24.5209,VALID,201,VALID,0.869922,
2011-12-08, 00:42:04,VALID,997.248,VALID,0,VALID,85.5357,VALID,0,VALID,24.5013,VALID,206,VALID,1.12227,
2011-12-08, 00:43:04,VALID,997.22,VALID,0,VALID,85.5357,VALID,0,VALID,24.4995,VALID,204,VALID,0.843359,
2011-12-08, 00:44:04,VALID,997.197,VALID,0,VALID,85.3755,VALID,0,VALID,24.48,VALID,199,VALID,0.879687,
2011-12-08, 00:45:04,VALID,997.168,VALID,0,VALID,85.2534,VALID,0,VALID,24.48,VALID,199,VALID,0.873828,
2011-12-08, 00:46:04,VALID,997.192,VALID,0,VALID,85.5509,VALID,0,VALID,24.4818,VALID,211,VALID,0.811719,
2011-12-08, 00:47:04,VALID,997.16,VALID,0,VALID,85.6883,VALID,0,VALID,24.4409,VALID,210,VALID,0.592188,
2011-12-08, 00:48:04,VALID,997.189,VALID,0,VALID,86.1003,VALID,0,VALID,24.4214,VALID,211,VALID,0.245312,
2011-12-08, 00:49:04,VALID,997.154,VALID,0,VALID,87.527,VALID,0.104696,VALID,24.3629,VALID,211,VALID,0,
2011-12-08, 00:50:04,VALID,997.167,VALID,0,VALID,88.1679,VALID,0,VALID,24.2653,VALID,211,VALID,0,
2011-12-08, 00:51:04,VALID,997.146,VALID,0,VALID,88.5951,VALID,0,VALID,24.1891,VALID,211,VALID,0,
2011-12-08, 00:52:04,VALID,997.144,VALID,0,VALID,88.969,VALID,0,VALID,24.1092,VALID,211,VALID,0,
2011-12-08, 00:53:04,VALID,997.155,VALID,0,VALID,89.1216,VALID,0,VALID,24.0701,VALID,211,VALID,0,
2011-12-08, 00:54:04,VALID,997.178,VALID,0,VALID,89.4191,VALID,0,VALID,24.0329,VALID,211,VALID,0,
2011-12-08, 00:55:04,VALID,997.162,VALID,0,VALID,89.587,VALID,0,VALID,23.9549,VALID,212,VALID,0.337109,
2011-12-08, 00:56:04,VALID,997.159,VALID,0,VALID,89.7854,VALID,0,VALID,23.836,VALID,32,VALID,1.27344,
2011-12-08, 00:57:04,VALID,997.138,VALID,0,VALID,90.2813,VALID,0,VALID,23.7793,VALID,24,VALID,1.57109,
2011-12-08, 00:58:04,VALID,997.137,VALID,0,VALID,91.0137,VALID,0,VALID,23.6799,VALID,22,VALID,1.6168,
2011-12-08, 00:59:04,VALID,997.139,VALID,0,VALID,91.4715,VALID,0,VALID,23.6232,VALID,32,VALID,1.4293,
2011-12-08, 01:00:04,VALID,997.142,VALID,0,VALID,91.9293,VALID,0,VALID,23.5451,VALID,31,VALID,1.11875,
2011-12-08, 01:01:04,VALID,997.124,VALID,0,VALID,92.2803,VALID,0,VALID,23.5061,VALID,30,VALID,0.970703,
2011-12-08, 01:02:04,VALID,997.111,VALID,0,VALID,92.5473,VALID,0,VALID,23.4866,VALID,30,VALID,0.757422,
2011-12-08, 01:03:04,VALID,997.093,VALID,0,VALID,92.7991,VALID,0,VALID,23.4458,VALID,30,VALID,0.589453,
2011-12-08, 01:04:04,VALID,997.047,VALID,0,VALID,92.9517,VALID,0,VALID,23.4067,VALID,30,VALID,0.495703,
2011-12-08, 01:05:04,VALID,997.042,VALID,0,VALID,93.0585,VALID,0,VALID,23.4067,VALID,30,VALID,0.337891,
2011-12-08, 01:06:04,VALID,996.996,VALID,0,VALID,93.1348,VALID,0,VALID,23.3677,VALID,30,VALID,0.00820312,
2011-12-08, 01:07:04,VALID,996.932,VALID,0,VALID,93.2111,VALID,0,VALID,23.3695,VALID,30,VALID,0.103906,
2011-12-08, 01:08:04,VALID,996.959,VALID,0,VALID,93.2874,VALID,0,VALID,23.35,VALID,30,VALID,0.259375,
2011-12-08, 01:09:04,VALID,996.961,VALID,0,VALID,93.4018,VALID,0,VALID,23.3092,VALID,30,VALID,0.321094,
2011-12-08, 01:10:04,VALID,996.943,VALID,0,VALID,93.4628,VALID,0,VALID,23.3287,VALID,30,VALID,0.532422,
2011-12-08, 01:11:04,VALID,996.919,VALID,0,VALID,93.5163,VALID,0,VALID,23.3677,VALID,30,VALID,0.139844,
2011-12-08, 01:12:04,VALID,996.926,VALID,0,VALID,93.5697,VALID,0,VALID,23.3287,VALID,30,VALID,0.0503906,
2011-12-08, 01:13:04,VALID,996.917,VALID,0,VALID,93.6078,VALID,0,VALID,23.3092,VALID,30,VALID,0,
2011-12-08, 01:14:04,VALID,996.928,VALID,0,VALID,93.6154,VALID,0,VALID,23.311,VALID,30,VALID,0,
2011-12-08, 01:15:04,VALID,996.944,VALID,0,VALID,93.6383,VALID,0,VALID,23.2897,VALID,30,VALID,0,
2011-12-08, 01:16:04,VALID,996.937,VALID,0,VALID,93.6917,VALID,0,VALID,23.2897,VALID,30,VALID,0.00195313,
2011-12-08, 01:17:04,VALID,996.946,VALID,0,VALID,93.6917,VALID,0.104696,VALID,23.2897,VALID,30,VALID,0,
2011-12-08, 01:18:04,VALID,996.932,VALID,0,VALID,93.7299,VALID,0,VALID,23.311,VALID,30,VALID,0,
2011-12-08, 01:19:04,VALID,996.917,VALID,0,VALID,93.7375,VALID,0,VALID,23.2702,VALID,30,VALID,0.466797,
2011-12-08, 01:20:04,VALID,996.94,VALID,0,VALID,93.768,VALID,0,VALID,23.2507,VALID,30,VALID,0.672656,
2011-12-08, 01:21:04,VALID,996.916,VALID,0,VALID,93.768,VALID,0,VALID,23.2117,VALID,30,VALID,0.811719,
2011-12-08, 01:22:04,VALID,996.928,VALID,0,VALID,93.7909,VALID,0,VALID,23.2117,VALID,30,VALID,0.728906,
2011-12-08, 01:23:04,VALID,996.935,VALID,0,VALID,93.8214,VALID,0,VALID,23.2134,VALID,30,VALID,0.728516,
2011-12-08, 01:24:04,VALID,996.9,VALID,0,VALID,93.8443,VALID,0,VALID,23.1939,VALID,30,VALID,1.00859,
2011-12-08, 01:25:04,VALID,996.906,VALID,0,VALID,93.8291,VALID,0,VALID,23.1141,VALID,30,VALID,1.29258,
2011-12-08, 01:26:04,VALID,996.923,VALID,0,VALID,93.8062,VALID,0,VALID,23.0964,VALID,30,VALID,1.41992,
2011-12-08, 01:27:04,VALID,996.933,VALID,0,VALID,93.7985,VALID,0,VALID,23.0573,VALID,30,VALID,1.40391,
2011-12-08, 01:28:04,VALID,996.931,VALID,0,VALID,93.7985,VALID,0,VALID,23.0166,VALID,31,VALID,1.30273,
2011-12-08, 01:29:04,VALID,996.95,VALID,0,VALID,93.8214,VALID,0,VALID,23.0183,VALID,30,VALID,0.686719,
2011-12-08, 01:30:04,VALID,996.894,VALID,0,VALID,93.8291,VALID,0,VALID,22.9988,VALID,30,VALID,0.601563,
2011-12-08, 01:31:04,VALID,996.904,VALID,0,VALID,93.8443,VALID,0,VALID,22.9988,VALID,30,VALID,0.726953,
2011-12-08, 01:32:04,VALID,996.868,VALID,0,VALID,93.8672,VALID,0,VALID,22.9793,VALID,30,VALID,1.12148,
2011-12-08, 01:33:04,VALID,996.867,VALID,0,VALID,93.8977,VALID,0,VALID,22.9793,VALID,30,VALID,1.07773,
2011-12-08, 01:34:04,VALID,996.878,VALID,0,VALID,93.913,VALID,0,VALID,22.9581,VALID,24,VALID,1.21914,
2011-12-08, 01:35:04,VALID,996.862,VALID,0,VALID,93.9435,VALID,0,VALID,22.9793,VALID,24,VALID,1.02813,
2011-12-08, 01:36:04,VALID,996.867,VALID,0,VALID,93.9817,VALID,0,VALID,22.9793,VALID,24,VALID,0.863672,
2011-12-08, 01:37:04,VALID,996.863,VALID,0,VALID,93.9893,VALID,0,VALID,22.9403,VALID,24,VALID,0.607813,
2011-12-08, 01:38:04,VALID,996.833,VALID,0,VALID,94.0351,VALID,0,VALID,22.8995,VALID,24,VALID,0.419922,
2011-12-08, 01:39:04,VALID,996.783,VALID,0,VALID,94.0198,VALID,0,VALID,22.9208,VALID,32,VALID,0.826172,
2011-12-08, 01:40:04,VALID,996.765,VALID,0,VALID,94.0885,VALID,0,VALID,22.9403,VALID,41,VALID,0.943359,
2011-12-08, 01:41:04,VALID,996.725,VALID,0,VALID,94.0961,VALID,0,VALID,22.9403,VALID,34,VALID,0.416016,
2011-12-08, 01:42:04,VALID,996.705,VALID,0,VALID,94.1037,VALID,0,VALID,22.9598,VALID,1,VALID,0.613281,
2011-12-08, 01:43:04,VALID,996.674,VALID,0,VALID,94.1114,VALID,0,VALID,22.9598,VALID,360,VALID,0.868359,
2011-12-08, 01:44:04,VALID,996.635,VALID,0,VALID,94.1419,VALID,0,VALID,22.9988,VALID,360,VALID,0.601953,
2011-12-08, 01:45:04,VALID,996.598,VALID,0,VALID,94.1495,VALID,0,VALID,22.9988,VALID,360,VALID,0.368359,
2011-12-08, 01:46:04,VALID,996.59,VALID,0,VALID,94.1495,VALID,0,VALID,22.9793,VALID,360,VALID,0.509375,
2011-12-08, 01:47:04,VALID,996.59,VALID,0,VALID,94.1648,VALID,0,VALID,22.9793,VALID,2,VALID,0.608203,
2011-12-08, 01:48:04,VALID,996.573,VALID,0,VALID,94.1724,VALID,0.104696,VALID,22.9793,VALID,2,VALID,0.557813,
2011-12-08, 01:49:04,VALID,996.529,VALID,0,VALID,94.18,VALID,0,VALID,22.9385,VALID,2,VALID,0.536719,
2011-12-08, 01:50:04,VALID,996.532,VALID,0,VALID,94.1724,VALID,0,VALID,22.9598,VALID,2,VALID,0.19375,
2011-12-08, 01:51:04,VALID,996.549,VALID,0,VALID,94.1877,VALID,0,VALID,22.9403,VALID,2,VALID,0,
2011-12-08, 01:52:04,VALID,996.563,VALID,0,VALID,94.18,VALID,0,VALID,22.9403,VALID,2,VALID,0,
2011-12-08, 01:53:04,VALID,996.536,VALID,0,VALID,94.1877,VALID,0,VALID,22.9208,VALID,2,VALID,0,
2011-12-08, 01:54:04,VALID,996.51,VALID,0,VALID,94.1877,VALID,0,VALID,22.9403,VALID,2,VALID,0,
2011-12-08, 01:55:04,VALID,996.501,VALID,0,VALID,94.1953,VALID,0,VALID,22.919,VALID,2,VALID,0,
2011-12-08, 01:56:04,VALID,996.478,VALID,0,VALID,94.2105,VALID,0,VALID,22.9208,VALID,2,VALID,0,
2011-12-08, 01:57:04,VALID,996.465,VALID,0,VALID,94.2105,VALID,0,VALID,22.9208,VALID,2,VALID,0,
2011-12-08, 01:58:04,VALID,996.455,VALID,0,VALID,94.2029,VALID,0,VALID,22.9403,VALID,2,VALID,0,
2011-12-08, 01:59:04,VALID,996.446,VALID,0,VALID,94.2411,VALID,0,VALID,22.9403,VALID,2,VALID,0,
2011-12-08, 02:00:04,VALID,996.447,VALID,0,VALID,94.2182,VALID,0,VALID,22.9403,VALID,2,VALID,0,
2011-12-08, 02:01:04,VALID,996.432,VALID,0,VALID,94.2334,VALID,0,VALID,22.9385,VALID,2,VALID,0,
2011-12-08, 02:02:04,VALID,996.449,VALID,0,VALID,94.2411,VALID,0,VALID,22.9598,VALID,2,VALID,0,
2011-12-08, 02:03:04,VALID,996.433,VALID,0,VALID,94.2487,VALID,0,VALID,22.9598,VALID,2,VALID,0,
2011-12-08, 02:04:04,VALID,996.434,VALID,0,VALID,94.2487,VALID,0,VALID,22.9598,VALID,2,VALID,0,
2011-12-08, 02:05:04,VALID,996.438,VALID,0,VALID,94.2563,VALID,0,VALID,22.9598,VALID,2,VALID,0,
2011-12-08, 02:06:04,VALID,996.408,VALID,0,VALID,94.2411,VALID,0,VALID,22.9403,VALID,2,VALID,0,
2011-12-08, 02:07:04,VALID,996.437,VALID,0,VALID,94.2411,VALID,0,VALID,22.9403,VALID,2,VALID,0,
2011-12-08, 02:08:04,VALID,996.421,VALID,0,VALID,94.2411,VALID,0,VALID,22.9403,VALID,2,VALID,0,
2011-12-08, 02:09:04,VALID,996.413,VALID,0,VALID,94.2258,VALID,0,VALID,22.9403,VALID,2,VALID,0,
2011-12-08, 02:10:04,VALID,996.392,VALID,0,VALID,94.2334,VALID,0,VALID,22.9581,VALID,2,VALID,0,
2011-12-08, 02:11:04,VALID,996.387,VALID,0,VALID,94.2487,VALID,0,VALID,22.9598,VALID,2,VALID,0.577344,
2011-12-08, 02:12:04,VALID,996.382,VALID,0,VALID,94.2487,VALID,0,VALID,22.9988,VALID,2,VALID,0.388672,
2011-12-08, 02:13:04,VALID,996.333,VALID,0,VALID,94.2563,VALID,0,VALID,22.9988,VALID,2,VALID,0.273047,
2011-12-08, 02:14:04,VALID,996.313,VALID,0,VALID,94.2563,VALID,0,VALID,22.9793,VALID,2,VALID,0,
2011-12-08, 02:15:04,VALID,996.295,VALID,0,VALID,94.2258,VALID,0,VALID,22.9988,VALID,2,VALID,0,
2011-12-08, 02:16:04,VALID,996.274,VALID,0,VALID,94.2487,VALID,0,VALID,22.9988,VALID,2,VALID,0,
2011-12-08, 02:17:04,VALID,996.226,VALID,0,VALID,94.2487,VALID,0,VALID,22.9988,VALID,2,VALID,0,
2011-12-08, 02:18:04,VALID,996.241,VALID,0,VALID,94.2411,VALID,0,VALID,22.9988,VALID,2,VALID,0,
2011-12-08, 02:19:04,VALID,996.251,VALID,0,VALID,94.2487,VALID,0,VALID,22.9971,VALID,2,VALID,0,
2011-12-08, 02:20:04,VALID,996.232,VALID,0,VALID,94.2182,VALID,0,VALID,23.0396,VALID,2,VALID,0,
2011-12-08, 02:21:04,VALID,996.225,VALID,0,VALID,94.2258,VALID,0,VALID,23.0183,VALID,2,VALID,0,
2011-12-08, 02:22:04,VALID,996.247,VALID,0,VALID,94.2182,VALID,0,VALID,23.0378,VALID,2,VALID,0,
2011-12-08, 02:23:04,VALID,996.236,VALID,0,VALID,94.2182,VALID,0,VALID,23.0573,VALID,2,VALID,0,
2011-12-08, 02:24:04,VALID,996.231,VALID,0,VALID,94.2258,VALID,0,VALID,23.0769,VALID,2,VALID,0.2625,
2011-12-08, 02:25:04,VALID,996.23,VALID,0,VALID,94.2182,VALID,0,VALID,23.0751,VALID,2,VALID,0,
2011-12-08, 02:26:04,VALID,996.17,VALID,0,VALID,94.2105,VALID,0,VALID,23.1159,VALID,2,VALID,0.346875,
2011-12-08, 02:27:04,VALID,996.224,VALID,0,VALID,94.2105,VALID,0,VALID,23.1354,VALID,2,VALID,0.391406,
2011-12-08, 02:28:04,VALID,996.175,VALID,0,VALID,94.2258,VALID,0,VALID,23.1141,VALID,2,VALID,0.482422,
2011-12-08, 02:29:04,VALID,996.216,VALID,0,VALID,94.2105,VALID,0,VALID,23.1354,VALID,2,VALID,0.396484,
2011-12-08, 02:30:05,VALID,996.219,VALID,0,VALID,94.2182,VALID,0,VALID,23.1336,VALID,2,VALID,0.257031,
2011-12-08, 02:31:04,VALID,996.216,VALID,0,VALID,94.2411,VALID,0,VALID,23.1549,VALID,2,VALID,0,
2011-12-08, 02:32:04,VALID,996.211,VALID,0,VALID,94.2563,VALID,0,VALID,23.1744,VALID,2,VALID,0,
2011-12-08, 02:33:05,VALID,996.234,VALID,0,VALID,94.2487,VALID,0,VALID,23.1549,VALID,2,VALID,0,
2011-12-08, 02:34:05,VALID,996.247,VALID,0,VALID,94.2334,VALID,0,VALID,23.1744,VALID,2,VALID,0.0078125,
2011-12-08, 02:35:05,VALID,996.247,VALID,0,VALID,94.2334,VALID,0,VALID,23.1939,VALID,2,VALID,0.569141,
2011-12-08, 02:36:05,VALID,996.283,VALID,0,VALID,94.2487,VALID,0,VALID,23.1726,VALID,29,VALID,0.398828,
2011-12-08, 02:37:05,VALID,996.293,VALID,0,VALID,94.2563,VALID,0,VALID,23.1939,VALID,29,VALID,0.550391,
2011-12-08, 02:38:05,VALID,996.322,VALID,0,VALID,94.2563,VALID,0,VALID,23.1939,VALID,29,VALID,0.550391,
2011-12-08, 02:39:05,VALID,996.344,VALID,0,VALID,94.264,VALID,0,VALID,23.1939,VALID,30,VALID,0.698438,
2011-12-08, 02:40:05,VALID,996.33,VALID,0,VALID,94.264,VALID,0,VALID,23.1921,VALID,31,VALID,0.663672,
2011-12-08, 02:41:05,VALID,996.36,VALID,0,VALID,94.2563,VALID,0,VALID,23.2134,VALID,32,VALID,0.724219,
2011-12-08, 02:42:05,VALID,996.394,VALID,0,VALID,94.2487,VALID,0,VALID,23.2329,VALID,32,VALID,0.586328,
2011-12-08, 02:43:05,VALID,996.407,VALID,0,VALID,94.2487,VALID,0,VALID,23.2329,VALID,45,VALID,0.911719,
2011-12-08, 02:44:05,VALID,996.392,VALID,0,VALID,94.2258,VALID,0,VALID,23.2329,VALID,53,VALID,0.801953,
2011-12-08, 02:45:05,VALID,996.428,VALID,0,VALID,94.2258,VALID,0,VALID,23.2312,VALID,62,VALID,0.749219,
2011-12-08, 02:46:05,VALID,996.417,VALID,0,VALID,94.1877,VALID,0,VALID,23.2524,VALID,73,VALID,0.810547,
2011-12-08, 02:47:05,VALID,996.434,VALID,0,VALID,94.18,VALID,0,VALID,23.2915,VALID,74,VALID,0.313672,
2011-12-08, 02:48:05,VALID,996.436,VALID,0,VALID,94.18,VALID,0,VALID,23.2702,VALID,74,VALID,0.470703,
2011-12-08, 02:49:05,VALID,996.491,VALID,0,VALID,94.1571,VALID,0,VALID,23.2915,VALID,74,VALID,0.139453,
2011-12-08, 02:50:05,VALID,996.433,VALID,0,VALID,94.1495,VALID,0,VALID,23.2915,VALID,74,VALID,0,
2011-12-08, 02:51:05,VALID,996.46,VALID,0,VALID,94.1266,VALID,0,VALID,23.2915,VALID,74,VALID,0,
2011-12-08, 02:52:05,VALID,996.487,VALID,0,VALID,94.1266,VALID,0,VALID,23.2915,VALID,74,VALID,0,
2011-12-08, 02:53:05,VALID,996.49,VALID,0,VALID,94.119,VALID,0,VALID,23.2915,VALID,74,VALID,0,
2011-12-08, 02:54:05,VALID,996.484,VALID,0,VALID,94.119,VALID,0,VALID,23.2915,VALID,74,VALID,0.167969,
2011-12-08, 02:55:05,VALID,996.472,VALID,0,VALID,94.1114,VALID,0,VALID,23.2719,VALID,74,VALID,0.353125,
2011-12-08, 02:56:05,VALID,996.484,VALID,0,VALID,94.0808,VALID,0,VALID,23.2932,VALID,74,VALID,0.0269531,
2011-12-08, 02:57:05,VALID,996.491,VALID,0,VALID,94.0656,VALID,0,VALID,23.2524,VALID,74,VALID,0,
2011-12-08, 02:58:05,VALID,996.456,VALID,0,VALID,94.0503,VALID,0,VALID,23.2524,VALID,74,VALID,0,
2011-12-08, 02:59:05,VALID,996.487,VALID,0,VALID,94.0427,VALID,0,VALID,23.2524,VALID,74,VALID,0,
2011-12-08, 03:00:05,VALID,996.483,VALID,0,VALID,94.0427,VALID,0,VALID,23.2719,VALID,74,VALID,0.361719,
2011-12-08, 03:01:05,VALID,996.481,VALID,0,VALID,94.0427,VALID,0,VALID,23.2719,VALID,74,VALID,0.492188,
2011-12-08, 03:02:05,VALID,996.469,VALID,0,VALID,94.058,VALID,0,VALID,23.2719,VALID,74,VALID,0.530859,
2011-12-08, 03:03:05,VALID,996.448,VALID,0,VALID,94.0503,VALID,0,VALID,23.2915,VALID,74,VALID,0.341797,
2011-12-08, 03:04:05,VALID,996.438,VALID,0,VALID,94.0427,VALID,0,VALID,23.2915,VALID,74,VALID,0,
2011-12-08, 03:05:05,VALID,996.484,VALID,0,VALID,94.0427,VALID,0,VALID,23.311,VALID,74,VALID,0,
2011-12-08, 03:06:05,VALID,996.509,VALID,0,VALID,94.0656,VALID,0,VALID,23.311,VALID,74,VALID,0,
2011-12-08, 03:07:05,VALID,996.489,VALID,0,VALID,94.058,VALID,0,VALID,23.311,VALID,74,VALID,0,
2011-12-08, 03:08:05,VALID,996.501,VALID,0,VALID,94.0503,VALID,0,VALID,23.3305,VALID,74,VALID,0,
2011-12-08, 03:09:05,VALID,996.476,VALID,0,VALID,94.0732,VALID,0,VALID,23.311,VALID,74,VALID,0,
2011-12-08, 03:10:05,VALID,996.497,VALID,0,VALID,94.0732,VALID,0,VALID,23.3305,VALID,74,VALID,0,
2011-12-08, 03:11:05,VALID,996.518,VALID,0,VALID,94.0656,VALID,0,VALID,23.35,VALID,74,VALID,0,
2011-12-08, 03:12:05,VALID,996.549,VALID,0,VALID,94.0885,VALID,0,VALID,23.35,VALID,74,VALID,0,
2011-12-08, 03:13:05,VALID,996.539,VALID,0,VALID,94.0732,VALID,0,VALID,23.35,VALID,74,VALID,0,
2011-12-08, 03:14:05,VALID,996.554,VALID,0,VALID,94.0885,VALID,0,VALID,23.35,VALID,74,VALID,0,
2011-12-08, 03:15:05,VALID,996.541,VALID,0,VALID,94.0885,VALID,0,VALID,23.35,VALID,74,VALID,0,
2011-12-08, 03:16:05,VALID,996.521,VALID,0,VALID,94.0808,VALID,0,VALID,23.3695,VALID,74,VALID,0,
2011-12-08, 03:17:05,VALID,996.601,VALID,0,VALID,94.1037,VALID,0,VALID,23.3695,VALID,74,VALID,0,
2011-12-08, 03:18:05,VALID,996.594,VALID,0,VALID,94.1037,VALID,0,VALID,23.3695,VALID,74,VALID,0,
2011-12-08, 03:19:05,VALID,996.586,VALID,0,VALID,94.0885,VALID,0,VALID,23.3695,VALID,74,VALID,0,
2011-12-08, 03:20:05,VALID,996.597,VALID,0,VALID,94.1114,VALID,0,VALID,23.3695,VALID,74,VALID,0,
2011-12-08, 03:21:05,VALID,996.587,VALID,0,VALID,94.119,VALID,0,VALID,23.3695,VALID,74,VALID,0,
2011-12-08, 03:22:05,VALID,996.576,VALID,0,VALID,94.119,VALID,0,VALID,23.3695,VALID,74,VALID,0,
2011-12-08, 03:23:05,VALID,996.577,VALID,0,VALID,94.1037,VALID,0,VALID,23.3695,VALID,74,VALID,0,
2011-12-08, 03:24:05,VALID,996.594,VALID,0,VALID,94.1114,VALID,0,VALID,23.389,VALID,74,VALID,0,
2011-12-08, 03:25:05,VALID,996.562,VALID,0,VALID,94.0885,VALID,0,VALID,23.428,VALID,74,VALID,0,
2011-12-08, 03:26:05,VALID,996.604,VALID,0,VALID,94.0885,VALID,0,VALID,23.3872,VALID,74,VALID,0,
2011-12-08, 03:27:05,VALID,996.638,VALID,0,VALID,94.0732,VALID,0,VALID,23.389,VALID,74,VALID,0,
2011-12-08, 03:28:05,VALID,996.631,VALID,0,VALID,94.0961,VALID,0,VALID,23.4085,VALID,74,VALID,0,
2011-12-08, 03:29:05,VALID,996.649,VALID,0,VALID,94.0503,VALID,0,VALID,23.389,VALID,74,VALID,0,
2011-12-08, 03:30:05,VALID,996.694,VALID,0,VALID,94.0656,VALID,0,VALID,23.389,VALID,74,VALID,0,
2011-12-08, 03:31:05,VALID,996.707,VALID,0,VALID,94.0503,VALID,0,VALID,23.389,VALID,74,VALID,0,
2011-12-08, 03:32:05,VALID,996.742,VALID,0,VALID,94.0427,VALID,0,VALID,23.4085,VALID,74,VALID,0,
2011-12-08, 03:33:05,VALID,996.748,VALID,0,VALID,94.0274,VALID,0,VALID,23.4067,VALID,74,VALID,0,
2011-12-08, 03:34:05,VALID,996.765,VALID,0,VALID,94.0274,VALID,0,VALID,23.4688,VALID,74,VALID,0.487891,
2011-12-08, 03:35:05,VALID,996.776,VALID,0,VALID,94.0274,VALID,0,VALID,23.4458,VALID,74,VALID,0.244531,
2011-12-08, 03:36:05,VALID,996.794,VALID,0,VALID,94.0351,VALID,0,VALID,23.4866,VALID,74,VALID,0.508203,
2011-12-08, 03:37:05,VALID,996.824,VALID,0,VALID,94.0274,VALID,0,VALID,23.5256,VALID,74,VALID,0.482031,
2011-12-08, 03:38:05,VALID,996.813,VALID,0,VALID,94.058,VALID,0,VALID,23.5238,VALID,86,VALID,0.673828,
2011-12-08, 03:39:05,VALID,996.859,VALID,0,VALID,94.0503,VALID,0,VALID,23.5646,VALID,107,VALID,0.974609,
2011-12-08, 03:40:05,VALID,996.871,VALID,0,VALID,94.0351,VALID,0,VALID,23.5433,VALID,107,VALID,0.742969,
2011-12-08, 03:41:05,VALID,996.915,VALID,0,VALID,94.0427,VALID,0,VALID,23.5841,VALID,107,VALID,0.619922,
2011-12-08, 03:42:05,VALID,996.905,VALID,0,VALID,94.0427,VALID,0,VALID,23.6036,VALID,106,VALID,0.600781,
2011-12-08, 03:43:05,VALID,996.914,VALID,0,VALID,94.0351,VALID,0,VALID,23.6019,VALID,106,VALID,0,
2011-12-08, 03:44:05,VALID,996.91,VALID,0,VALID,94.0656,VALID,0,VALID,23.6427,VALID,106,VALID,0.482031,
2011-12-08, 03:45:05,VALID,996.91,VALID,0,VALID,94.0274,VALID,0,VALID,23.6019,VALID,106,VALID,0.378906,
2011-12-08, 03:46:05,VALID,996.888,VALID,0,VALID,94.0274,VALID,0,VALID,23.6232,VALID,106,VALID,0.626953,
2011-12-08, 03:47:05,VALID,996.881,VALID,0,VALID,94.0122,VALID,0,VALID,23.6019,VALID,82,VALID,0.761719,
2011-12-08, 03:48:05,VALID,996.901,VALID,0,VALID,94.0122,VALID,0,VALID,23.6036,VALID,82,VALID,0.623047,
2011-12-08, 03:49:05,VALID,996.864,VALID,0,VALID,93.9817,VALID,0,VALID,23.5433,VALID,82,VALID,0.498828,
2011-12-08, 03:50:05,VALID,996.882,VALID,0,VALID,93.9511,VALID,0,VALID,23.5433,VALID,82,VALID,0.453516,
2011-12-08, 03:51:05,VALID,996.829,VALID,0,VALID,93.9206,VALID,0,VALID,23.5238,VALID,82,VALID,0.361719,
2011-12-08, 03:52:05,VALID,996.841,VALID,0,VALID,93.9054,VALID,0,VALID,23.5451,VALID,80,VALID,0.515625,